Preview of NWS' New Version of Forecast
This preview is not operational and should not be used for support decisions.

Regional Weather Roundup (RWR)

Issued by National Weather Service (NWS)

                            
000
ASUS43 KTOP 250908
RWRKS 

WEATHER ROUNDUP FOR KANSAS
NATIONAL WEATHER SERVICE GOODLAND KS
400 AM CDT TUE JUN 25 2019

NOTE:  "FAIR" INDICATES FEW OR NO CLOUDS BELOW 12,000 FEET WITH NO
SIGNIFICANT WEATHER AND/OR OBSTRUCTIONS TO VISIBILITY.

KSZ001>006-013>018-027>032-041>047-251000-
NORTHWEST KANSAS
  
CITY           SKY/WX    TMP DP  RH WIND       PRES   REMARKS
GOODLAND       PTCLDY    63  53  70 S16       29.91S                  
HAYS           CLEAR     65  56  72 SW12      29.88R                  
HILL CITY      CLEAR     69  55  60 SW9       29.87R                  
RUSSELL        CLEAR     67  56  67 SW13      29.86R                  
$$

KSZ061>065-074>080-084>089-251000-
SOUTHWEST KANSAS
  
CITY           SKY/WX    TMP DP  RH WIND       PRES   REMARKS
DODGE CITY     CLEAR     65  57  75 S10       29.92S                  
ELKHART        PTCLDY    70  62  75 S20G26    29.94S                  
GARDEN CITY    CLEAR     61  56  83 S7        29.93R                  
GREAT BEND     CLEAR     68  58  70 SW13      29.89R                  
LIBERAL        CLEAR     61  56  83 SW7       29.95R                  
PRATT          CLEAR     66  59  78 S10       29.90F                  
$$

KSZ066>073-081>083-090>101-251000-
SOUTHEAST KANSAS
  
CITY           SKY/WX    TMP DP  RH WIND       PRES   REMARKS
CHANUTE        CLEAR     64  60  87 S6        29.91R                  
COFFEYVILLE    CLEAR     65  61  87 S5        29.90S                  
HUTCHINSON     CLEAR     67  59  75 MISG      29.87F                  
MEDICINE LODGE   N/A     66  60  81 SE5       29.90S                  
NEWTON         CLEAR     66  61  84 S12       29.90R                  
PARSONS        CLEAR     65  62  90 S3        29.92S                  
WICHITA INTL   CLEAR     65  60  84 S7        29.90R                  
WICHITA JABRA  CLEAR     66  61  84 S10       29.89R                  
WICHITA MCCONL CLEAR     65  60  85 S10       29.90R                  
WINFIELD       CLEAR     65  61  87 S6        29.91S                  
$$

KSZ007>012-019>026-033>040-048>060-102>105-251000-
NORTHEAST KANSAS
  
CITY           SKY/WX    TMP DP  RH WIND       PRES   REMARKS
CONCORDIA      CLEAR     70  57  63 SW15      29.82R                  
EMPORIA        CLEAR     64  61  90 S10       29.88R                  
LAWRENCE       CLEAR     68  59  73 SE5       29.86S                  
MANHATTAN      CLEAR     68  60  75 SW10      29.83S                  
MARYSVILLE     CLEAR     66  59  77 S8        29.82S                  
OLATHE IND     CLEAR     63  59  87 S6        29.88F                  
OLATHE EXE     CLEAR     65  59  81 S7        29.88S                  
SALINA         CLEAR     67  58  72 S10       29.85R                  
TOPEKA BILLARD CLEAR     69  59  70 S5        29.85S                  
TOPEKA FORBES  CLEAR     67  60  78 S10       29.85S                  
$$